Lapse_Rate
6.5 6.6 6.8 6.9 7.0 7.1 7.1 7.0 7.0 6.9 6.6 6.2 6.2 6.3 6.0 6.4 6.2 6.5 6.7 7.0 7.1 6.7 6.5 6.6 6.7 7.0 6.8 6.9 7.0 6.8 6.6 6.7 7.0 7.2 7.3 7.1 7.1 7.2 7.1 7.2 7.3 7.6 7.7 7.4 7.2 6.9 6.5 6.8 6.9 7.5 7.6 7.9 7.5 7.3
6.6 6.6 6.9 6.9 7.0 7.1 7.3 7.3 6.9 6.8 6.6 6.4 6.2 6.0 6.1 6.5 6.7 6.6 7.0 7.2 6.9 6.8 6.6 6.6 6.5 6.6 6.8 6.8 6.8 6.5 6.6 6.8 6.9 7.1 7.3 7.2 7.0 7.0 7.0 7.2 7.5 7.4 7.3 7.5 7.5 7.3 7.0 7.1 7.2 7.3 7.3 7.0 6.9 6.7
6.8 6.7 6.8 6.8 6.9 7.1 7.4 7.4 7.1 6.8 6.6 6.4 6.2 6.4 6.3 6.4 6.6 6.8 6.8 7.0 6.7 6.8 6.4 6.3 6.3 6.6 6.6 6.6 6.6 6.3 6.5 6.4 6.7 7.1 7.3 7.1 6.9 6.9 6.9 7.0 7.4 7.4 7.4 7.5 7.3 6.7 6.7 6.3 6.4 6.5 6.9 6.7 6.5 6.5
6.8 6.8 6.7 6.7 6.9 7.0 7.3 7.5 7.2 6.8 6.5 6.4 6.3 6.2 6.2 6.6 6.7 6.8 6.8 7.0 6.8 6.6 6.4 6.6 6.5 6.5 6.8 6.6 6.2 6.1 6.0 5.8 6.7 7.0 7.0 6.9 7.0 7.0 6.9 6.9 7.1 7.1 7.3 7.2 7.1 7.0 6.8 6.6 6.3 6.4 6.6 6.6 6.7 6.5
6.9 6.9 6.8 6.8 6.9 7.0 7.2 7.5 7.2 6.9 6.6 6.2 6.0 6.1 6.4 6.7 6.8 6.8 6.7 6.8 6.7 6.6 6.5 6.6 6.6 6.5 6.2 6.1 6.1 5.8 5.8 6.2 6.5 6.7 6.8 6.7 6.6 6.5 6.6 6.7 6.7 6.9 6.9 7.1 7.1 6.9 6.8 6.7 6.7 6.8 6.7 6.6 6.4 6.2
6.9 7.0 6.9 6.9 6.9 7.0 7.1 7.3 7.3 7.0 6.6 6.4 6.0 5.9 6.2 6.6 6.5 6.5 6.6 7.0 7.1 6.3 6.2 6.3 6.2 6.5 6.1 5.8 5.7 6.0 6.3 6.5 6.6 6.5 6.6 6.5 6.5 6.4 6.2 6.2 6.4 6.7 7.2 7.2 7.3 7.3 7.5 7.2 6.9 6.7 6.8 6.7 6.5 6.4
6.8 7.1 7.0 7.0 6.9 7.0 7.0 7.0 7.2 7.0 6.8 6.3 5.9 6.0 6.5 6.4 6.4 6.4 6.9 7.0 6.9 6.3 6.4 6.4 6.3 6.3 6.4 6.4 6.4 6.4 6.5 6.7 6.7 6.6 6.4 6.4 6.3 6.2 5.9 5.9 6.1 6.8 7.2 7.3 7.4 7.3 7.1 7.1 7.1 7.0 6.8 6.7 6.6 6.6
6.4 6.8 7.0 7.0 7.0 6.9 7.0 7.0 7.2 7.0 6.8 6.7 6.2 6.6 6.5 6.3 6.4 6.7 6.8 6.5 6.3 6.5 6.7 6.9 6.6 6.4 6.5 6.7 6.7 6.8 6.8 6.7 6.5 6.4 6.5 6.5 6.2 6.0 5.7 6.6 7.1 6.8 6.8 7.0 6.8 6.7 6.7 6.7 6.6 6.4 6.3 6.3 6.3 6.4
6.2 6.7 7.0 6.9 6.9 6.8 7.1 7.3 6.9 6.8 6.8 7.0 6.4 6.6 6.2 6.1 6.4 6.5 6.5 6.4 6.3 6.5 6.9 7.2 6.9 6.5 6.6 6.7 6.8 6.8 6.9 6.7 6.8 6.8 6.5 6.5 6.8 6.7 6.7 6.3 6.2 6.4 6.5 6.1 6.2 6.3 6.2 6.0 6.2 6.4 6.4 6.3 6.3 6.2
6.3 6.7 6.7 6.8 6.8 7.0 7.0 7.0 7.2 7.0 6.6 6.6 6.5 6.4 6.2 6.1 6.3 6.5 6.3 6.2 6.3 6.7 7.1 7.5 7.5 7.3 6.9 7.0 6.8 6.8 7.0 7.1 7.0 6.9 6.9 6.9 7.9 6.8 6.1 5.9 5.7 5.7 5.9 5.9 5.9 5.9 5.8 5.7 5.7 5.7 5.8 5.9 6.0 6.0
6.5 6.6 6.5 6.7 6.7 6.8 6.8 7.0 6.7 6.9 6.5 6.3 6.2 6.1 6.3 6.2 5.8 5.9 6.1 6.1 6.5 7.1 7.6 7.6 7.6 7.8 7.0 7.1 7.3 7.2 7.5 7.7 7.5 7.0 6.7 6.7 7.6 6.6 6.5 6.3 6.3 6.2 6.0 5.9 5.9 5.8 5.7 5.6 5.4 5.5 5.7 5.7 5.8 5.9
6.5 6.5 6.6 6.7 6.5 6.9 6.9 6.7 6.7 6.6 6.5 6.4 6.4 6.5 6.1 5.9 6.0 6.0 6.0 6.4 6.8 7.3 7.5 7.7 7.5 7.6 7.4 7.3 7.5 7.4 7.3 7.2 6.9 6.6 6.3 6.5 6.8 6.6 6.3 6.2 6.2 6.2 6.2 6.0 5.9 5.7 5.6 5.5 5.6 5.9 6.2 6.4 6.4 6.5
6.5 6.8 6.9 6.5 6.6 6.7 6.7 6.9 6.7 6.6 6.6 6.6 6.4 5.9 6.1 6.2 6.2 6.1 6.0 6.3 6.8 7.3 7.5 7.4 7.5 7.3 7.3 7.3 7.2 7.1 7.0 6.9 6.8 6.6 6.4 7.0 6.7 6.5 6.4 6.2 6.1 6.1 6.3 6.0 6.1 6.0 5.9 6.2 6.5 6.7 6.7 6.6 6.7 7.0
6.6 6.9 7.0 6.6 6.7 6.8 6.8 6.8 7.2 6.9 6.7 6.4 6.6 6.4 6.6 6.5 6.4 6.8 7.1 7.3 7.4 7.4 7.4 7.3 7.4 7.2 7.2 7.2 7.2 7.0 6.7 6.7 6.6 6.4 7.3 7.0 6.7 6.6 6.7 6.9 6.8 6.4 6.2 6.2 6.4 6.2 6.4 6.8 7.1 7.1 6.9 7.0 6.9 7.0
7.0 7.1 6.9 6.6 6.8 6.7 6.8 6.9 6.8 6.5 6.5 6.6 6.7 6.9 6.7 6.8 7.2 7.6 7.3 7.3 7.6 7.7 7.5 7.3 7.4 7.5 7.3 7.2 7.0 6.9 6.7 6.7 6.9 7.6 7.4 7.2 6.9 6.8 6.8 6.8 6.9 7.1 7.0 7.2 7.4 7.4 7.5 7.8 7.9 7.8 7.6 7.7 7.4 7.0
7.1 7.0 6.8 6.7 6.9 7.0 6.9 6.8 6.8 6.6 6.6 6.7 6.8 6.8 7.0 7.3 7.6 7.4 7.1 7.2 7.5 7.5 7.2 7.3 7.2 7.2 7.3 7.5 7.4 7.3 7.1 7.6 7.7 7.7 7.5 7.1 7.0 6.9 6.8 6.8 6.7 6.7 6.9 7.1 7.5 7.8 8.0 8.0 7.6 7.6 8.1 7.9 7.5 7.0
7.1 6.7 6.6 6.7 7.1 6.9 6.5 6.6 6.6 6.8 6.8 6.8 6.9 7.1 7.5 7.6 7.9 7.7 7.5 7.7 7.7 7.8 7.4 7.2 7.5 7.6 7.5 7.6 7.6 7.6 7.9 7.8 7.7 7.6 7.4 7.3 7.3 7.2 7.0 6.8 6.7 6.6 6.6 6.7 6.8 7.1 7.3 7.3 7.3 7.6 7.8 7.7 7.3 7.3
7.0 7.0 6.8 6.9 6.7 6.6 6.5 6.6 7.0 6.9 6.8 6.9 7.2 7.4 7.4 7.5 7.7 7.5 7.4 7.8 8.0 7.8 7.6 7.6 8.0 8.1 8.1 8.0 8.2 8.1 7.9 7.8 7.9 7.9 7.9 7.7 7.4 7.3 7.2 7.1 6.9 6.6 6.5 6.6 6.7 6.8 6.9 7.1 7.3 7.5 7.5 7.4 7.2 7.3
7.8 7.2 7.2 6.8 6.5 6.5 6.5 6.6 6.8 6.8 6.9 6.9 7.0 6.8 7.2 7.4 7.4 7.7 7.6 7.3 7.5 7.7 7.4 7.7 8.0 8.2 8.3 8.2 7.9 8.0 7.9 7.9 7.8 7.8 7.7 7.4 7.2 7.2 7.2 7.1 6.9 6.7 6.6 6.2 6.3 6.4 6.8 7.0 7.3 7.4 7.3 7.3 7.2 7.1
7.8 7.3 7.3 6.8 6.6 6.5 6.6 6.6 6.6 7.1 6.9 7.1 6.9 7.0 7.1 7.1 7.2 7.3 7.1 7.1 7.1 7.2 7.2 7.6 8.1 8.0 8.1 8.0 8.0 7.8 7.8 7.8 7.7 7.7 7.7 7.7 7.7 7.6 7.5 7.0 6.7 6.7 6.5 6.1 5.8 6.0 6.5 6.7 7.1 7.4 7.6 7.6 7.4 7.3
7.5 7.1 6.9 6.9 6.7 6.7 6.8 6.7 6.9 7.1 7.3 7.3 7.0 6.8 6.9 6.9 7.0 6.9 6.8 6.7 6.9 7.3 7.7 8.2 8.1 7.9 7.9 7.8 7.7 7.7 7.7 7.6 7.6 7.5 7.6 7.6 7.5 7.3 7.2 7.0 6.4 6.3 6.2 6.0 5.8 6.1 6.2 6.3 6.8 7.2 7.2 7.4 7.2 6.9
7.3 7.3 7.0 7.0 7.2 7.3 6.9 6.9 7.2 7.1 7.1 7.4 7.2 7.1 6.8 6.7 6.6 6.5 6.5 6.5 6.9 7.7 8.0 8.1 7.9 7.8 7.7 7.7 7.6 7.6 7.7 7.8 7.8 7.6 7.4 7.4 7.4 7.2 6.9 6.6 6.2 6.1 6.1 6.0 5.8 6.0 6.4 6.6 6.7 6.9 7.0 7.3 7.3 7.3
7.2 7.1 7.1 7.3 7.4 7.3 7.1 7.1 7.2 7.3 7.2 7.1 7.0 6.8 6.8 6.7 6.5 6.6 6.4 6.5 7.5 8.1 8.0 7.9 7.9 7.8 7.8 7.8 7.8 7.8 7.7 7.7 7.8 7.6 7.3 7.4 7.4 7.5 7.0 6.5 6.0 5.7 5.9 6.2 6.1 6.3 6.5 6.6 6.8 7.0 7.1 7.3 7.4 7.4
7.0 7.0 7.3 7.2 7.4 7.2 7.0 7.1 7.1 7.3 7.3 7.0 6.9 6.9 7.0 7.0 6.9 6.6 6.6 7.3 8.1 8.0 8.0 8.0 7.8 7.9 8.0 7.9 7.9 7.8 7.7 7.5 7.5 7.4 7.5 7.4 7.3 7.4 7.0 6.6 6.2 6.0 5.9 5.9 6.1 6.4 6.8 7.0 7.3 7.5 7.6 7.8 7.9 7.9
7.1 7.1 6.9 6.8 6.9 7.1 7.0 7.1 7.0 6.9 6.9 6.7 6.7 6.7 6.8 6.8 6.7 6.6 6.9 8.1 8.2 8.0 7.9 8.0 8.2 8.0 7.9 7.8 7.8 7.7 7.6 7.4 7.3 7.2 7.6 7.3 7.0 6.8 6.7 6.6 6.5 6.3 6.2 6.0 6.1 6.4 7.0 7.4 7.6 7.8 7.9 7.9 7.9 7.7
7.3 7.0 7.1 7.0 7.1 7.1 7.0 6.8 6.8 6.9 7.1 7.1 6.9 6.9 6.9 6.8 6.9 6.8 7.4 8.0 8.1 8.0 8.0 8.0 7.9 7.9 7.8 7.7 7.7 7.7 7.7 7.3 7.1 7.2 7.5 7.2 6.9 6.5 6.2 6.1 6.2 6.5 6.1 6.1 6.2 6.5 7.0 7.4 7.6 7.8 8.0 7.9 7.7 7.3
7.5 7.2 7.1 7.1 7.2 7.3 7.3 7.3 7.1 7.0 7.1 7.1 7.2 7.2 7.1 7.0 7.1 7.6 7.7 7.5 7.6 7.6 7.6 7.6 7.5 7.5 7.5 7.6 7.6 7.6 7.5 7.3 7.3 7.2 7.1 7.0 6.9 6.6 6.2 6.2 6.4 6.6 6.6 6.6 6.5 6.2 6.1 6.5 6.8 7.0 7.0 6.8 6.7 6.6
7.6 7.7 7.4 7.4 7.5 7.5 7.3 7.5 7.4 7.3 7.3 7.3 7.3 7.3 7.2 7.4 7.8 7.6 7.4 7.4 7.5 7.5 7.5 7.4 7.4 7.5 7.5 7.5 7.6 7.6 7.6 7.5 7.2 7.0 6.9 7.0 6.8 6.6 6.5 6.7 6.7 6.7 6.6 6.4 6.1 6.0 6.0 6.0 6.1 6.2 6.2 6.2 6.3 6.2
7.7 7.9 7.7 7.6 7.3 7.4 7.3 7.4 7.4 7.4 7.4 7.4 7.5 7.6 7.6 7.7 7.4 7.3 7.3 7.4 7.5 7.5 7.5 7.5 7.5 7.6 7.7 7.6 7.6 7.5 7.3 7.0 6.9 6.9 6.9 7.0 7.1 7.2 7.1 7.0 6.9 6.4 5.9 5.8 5.9 5.9 5.9 5.9 5.7 5.7 5.7 5.6 5.5 5.6
7.4 7.6 7.5 7.3 7.3 7.2 7.4 7.4 7.4 7.3 7.4 7.5 7.5 7.5 7.4 7.4 7.3 7.3 7.3 7.3 7.4 7.4 7.6 7.7 7.8 7.8 7.8 7.6 7.5 7.4 7.1 6.7 6.5 6.6 6.7 6.8 6.9 7.1 7.2 7.0 6.5 6.2 6.0 5.9 5.8 5.7 5.6 5.5 5.3 5.1 4.8 4.7 4.8 4.7
7.5 7.6 7.5 7.3 7.2 7.3 7.3 7.3 7.3 7.3 7.4 7.4 7.4 7.4 7.4 7.5 7.5 7.4 7.5 7.5 7.7 7.5 7.3 7.2 7.1 7.1 7.2 7.3 7.3 7.2 7.2 6.9 6.6 6.5 6.5 6.6 6.6 6.5 6.2 6.0 5.9 5.8 5.8 5.7 5.7 5.6 5.3 4.9 4.6 4.4 4.4 4.4 4.4 4.3
7.3 7.3 7.5 7.6 7.5 7.2 7.2 7.2 7.2 7.3 7.4 7.4 7.4 7.4 7.3 7.4 7.5 7.5 7.4 7.2 6.9 6.9 6.9 7.0 7.2 7.5 7.5 7.4 7.1 7.0 6.9 6.7 6.6 6.4 6.3 6.0 5.9 5.9 5.8 5.8 5.7 5.7 5.7 5.7 5.6 5.3 4.8 4.5 4.4 4.4 4.3 4.1 3.9 3.9
7.1 7.2 7.2 7.2 7.3 7.3 7.3 7.3 7.4 7.5 7.5 7.5 7.5 7.4 7.3 7.3 7.4 7.2 7.0 6.7 6.6 6.7 6.8 7.0 7.2 7.3 7.2 6.9 6.6 6.3 6.1 6.1 6.1 6.0 5.9 5.8 5.8 5.7 5.7 5.7 5.7 5.6 5.5 5.4 5.3 5.0 5.0 4.9 4.8 4.6 4.4 4.3 4.2 4.1
Wind_Speed
20 19 20 22 24 24 23 20 18 19 11 14 15 16 11 20 31 7 1 4 2 1 1 4 6 5 3 2 3 4 2 3 3 3 3 3 3 3 3 3 5 6 6 4 2 2 6 1 1 2 5 3 6 4
21 19 19 21 23 23 23 21 17 20 15 12 15 19 12 21 30 16 1 3 3 2 1 1 2 2 3 5 3 3 1 3 3 4 1 3 2 2 3 2 2 2 3 5 6 5 5 4 6 4 4 5 4 5
22 21 19 20 21 23 23 23 16 18 14 13 12 18 18 23 31 15 3 2 3 0 1 2 2 5 8 8 2 3 2 1 3 3 3 2 5 1 3 2 0 4 5 3 4 5 4 8 8 7 8 6 4 4
23 20 18 19 20 21 23 22 20 18 14 13 10 8 6 25 33 17 3 2 2 2 3 1 4 3 8 6 4 1 4 4 4 4 3 3 3 2 1 1 2 2 3 3 4 5 7 7 6 5 7 8 8 7
23 17 18 19 19 19 22 23 20 20 14 13 11 9 11 30 32 17 4 3 3 3 3 4 1 3 5 2 4 7 6 5 4 3 3 1 1 3 2 2 0 0 3 3 3 2 3 2 4 6 6 3 3 3
19 18 18 17 19 19 23 22 21 22 9 8 16 16 20 29 27 5 1 3 9 4 3 2 2 2 5 5 8 8 5 4 3 3 1 1 1 3 2 1 4 3 4 4 2 1 4 3 4 8 8 9 8 7
19 18 16 17 19 21 23 22 24 19 10 17 17 25 32 31 9 3 4 3 8 3 3 3 1 3 0 3 3 4 5 3 3 2 2 2 2 3 2 3 4 6 2 2 2 3 1 6 4 5 7 7 7 7
17 15 16 18 21 24 24 26 22 13 12 16 25 35 30 20 4 3 2 2 5 3 3 3 1 2 2 2 3 3 3 4 5 2 2 2 3 2 2 6 6 8 9 7 4 4 6 7 5 6 5 6 9 7
17 15 16 19 21 24 29 20 10 16 17 30 39 32 9 2 3 3 3 6 4 3 3 3 4 3 1 1 2 4 3 3 3 2 1 3 1 3 5 6 6 6 3 2 6 7 6 8 5 5 5 6 6 7
12 14 17 17 22 30 8 3 3 42 37 33 11 3 3 3 7 6 5 3 4 3 2 2 2 3 4 1 2 3 2 2 2 3 1 2 3 6 7 8 7 7 4 7 5 3 3 4 4 3 4 2 1 3
14 15 16 16 23 15 10 12 28 37 31 2 2 2 2 7 3 3 2 3 1 1 2 3 3 5 1 3 2 1 2 1 2 2 3 1 3 3 6 4 6 10 6 5 6 6 5 5 3 1 4 4 4 6
11 14 13 16 21 12 14 39 35 7 3 5 4 4 3 3 3 5 2 0 2 5 3 5 4 4 1 3 3 3 3 2 1 1 2 2 3 3 4 6 7 8 7 7 5 6 6 5 4 4 5 6 6 7
10 13 12 13 15 15 32 26 13 9 6 4 4 2 3 2 5 6 8 2 2 4 4 4 4 3 3 4 3 3 4 2 1 3 2 4 3 3 4 3 2 6 7 5 5 4 6 5 5 6 7 7 7 7
11 13 13 14 15 7 30 19 13 6 3 3 3 4 4 3 4 5 5 5 4 6 10 6 3 3 2 3 2 3 2 3 3 1 4 3 3 3 3 2 3 6 7 9 11 9 8 7 7 7 6 6 6 8
11 13 14 16 16 11 34 25 17 2 1 2 2 3 5 3 2 4 3 5 3 9 6 4 4 3 3 4 1 3 2 2 4 4 3 4 4 4 3 4 5 5 5 5 6 7 8 8 6 7 7 6 6 7
11 11 6 13 15 28 32 23 2 1 2 1 2 1 1 3 1 3 3 8 3 7 4 4 3 3 1 4 3 4 5 5 4 3 4 2 4 6 5 6 8 7 7 8 9 9 8 4 6 7 5 5 6 7
3 3 5 17 35 26 17 3 2 2 1 2 2 2 3 2 3 3 6 4 8 6 3 3 4 5 3 3 4 4 5 4 4 3 3 6 6 5 6 6 7 8 8 8 7 7 7 7 5 4 5 7 6 7
4 4 8 24 16 6 2 2 2 2 1 2 1 3 1 2 5 5 3 5 4 3 3 4 4 3 5 5 3 4 4 4 3 3 3 3 4 6 5 6 7 7 8 8 8 7 6 6 7 6 7 8 6 7
11 10 22 27 7 3 2 3 2 2 1 2 3 2 1 2 3 6 6 3 4 4 4 2 3 3 3 3 4 2 2 3 2 3 3 3 5 6 6 6 6 5 6 4 4 4 5 7 7 5 5 4 5 5
11 24 32 17 3 3 3 1 1 2 1 2 2 2 2 2 2 4 4 3 3 3 2 2 3 3 4 3 3 3 3 3 2 2 4 4 4 6 6 5 5 6 5 6 5 6 4 4 6 6 5 7 6 7
6 4 9 3 2 2 2 2 2 1 1 2 3 3 2 3 3 3 2 1 3 2 2 3 3 3 4 3 3 3 4 4 4 4 5 5 4 4 5 5 5 3 3 4 5 6 6 6 7 5 6 8 8 8
2 4 2 4 3 2 3 3 3 3 2 2 2 3 2 2 1 1 2 3 2 3 4 4 3 3 2 3 4 4 5 5 5 4 5 3 4 4 4 4 2 4 4 6 5 6 7 6 5 6 6 8 7 6
4 4 3 3 4 4 2 2 3 2 2 2 1 2 2 1 1 2 1 2 3 3 4 5 5 6 6 6 4 5 5 6 5 5 6 5 5 5 5 5 4 5 6 7 5 6 6 8 7 7 7 6 6 8
4 3 2 2 3 1 2 3 2 3 2 2 2 1 2 2 1 2 2 2 3 3 3 6 3 2 3 3 3 5 6 4 4 5 5 5 6 8 6 7 6 6 7 8 6 6 7 7 8 6 7 7 7 9
4 1 3 2 1 3 3 2 2 3 2 2 2 1 1 2 2 1 2 3 3 3 4 2 2 4 4 4 4 5 5 4 4 6 6 5 6 5 4 6 7 8 4 2 7 8 8 7 7 8 9 8 10 9
3 3 4 5 1 4 4 3 4 4 3 2 2 1 2 3 2 3 3 2 3 3 3 4 4 3 4 5 4 4 5 4 4 4 6 5 5 5 6 8 8 6 4 5 6 7 9 7 7 10 10 10 12 12
3 3 3 3 3 3 3 2 2 4 2 3 2 2 3 2 4 4 3 3 3 3 3 3 4 4 4 5 4 4 5 4 5 6 5 4 4 5 5 7 9 5 3 4 3 4 8 10 10 10 11 9 9 10
3 2 5 2 3 1 4 2 3 4 4 3 4 3 7 7 5 3 4 3 3 2 3 3 2 2 3 3 3 4 4 3 5 5 4 4 3 3 4 4 4 4 4 4 6 7 9 10 10 11 11 11 10 8
1 1 4 4 4 3 2 4 4 3 2 4 5 3 3 3 3 2 3 2 2 3 3 4 3 3 5 4 2 2 2 2 6 12 15 12 10 6 3 3 6 6 6 8 11 9 8 8 8 6 8 7 8 7
1 1 3 2 4 0 1 2 1 2 1 2 2 2 2 3 3 2 3 3 2 2 1 3 4 4 5 5 6 6 3 3 4 5 8 9 8 7 7 7 7 7 5 4 5 6 6 4 4 4 4 4 5 5
1 3 3 2 2 2 1 2 2 0 2 2 2 3 2 3 4 2 1 1 2 2 2 3 5 4 4 5 6 8 8 3 3 6 7 7 9 8 7 5 4 3 3 3 3 4 4 3 2 3 4 5 6 4
3 2 3 3 1 1 3 3 1 2 3 3 3 2 4 3 3 3 0 2 2 2 3 3 5 7 4 4 5 5 8 6 5 6 6 5 5 4 3 3 3 3 3 3 4 4 4 4 3 3 4 5 6 6
2 3 2 3 2 1 2 1 3 2 2 2 2 2 2 3 5 3 1 1 2 1 3 4 5 5 7 8 6 4 4 3 3 4 4 5 5 5 3 3 3 3 4 3 4 4 6 7 5 6 6 6 6 6
Wind_Direction
302 311 322 323 325 326 328 324 329 328 285 250 246 217 205 205 178 153 223 170 138 208 305 23 15 23 350 19 154 187 59 343 48 72 116 187 138 185 114 187 149 159 151 181 109 151 270 316 1 178 161 138 133 120
304 308 315 321 322 324 324 326 324 324 320 263 240 207 185 172 171 152 146 183 114 49 24 354 322 27 334 300 276 319 201 139 164 101 109 115 89 61 134 205 360 164 194 178 169 199 190 45 112 134 139 145 165 135
298 303 306 315 319 318 322 325 322 307 311 308 238 196 207 201 183 160 120 156 111 156 65 5 348 327 324 327 189 272 348 220 79 165 140 121 93 62 127 216 29 1 355 73 102 354 141 78 53 61 56 75 82 99
297 296 300 310 314 313 317 318 322 314 304 301 226 185 217 171 171 161 148 196 128 174 124 247 224 307 266 334 315 206 147 46 89 58 74 76 94 22 120 140 111 213 12 43 72 10 83 44 71 72 56 60 50 48
296 291 299 305 310 309 308 307 312 313 291 275 235 189 239 174 162 163 199 261 240 128 160 141 106 342 336 34 20 33 62 71 47 50 55 110 116 68 340 72 256 316 142 105 149 283 105 63 13 77 80 74 99 54
293 294 296 302 308 306 301 301 303 304 265 274 277 224 165 144 154 131 260 251 214 152 109 91 266 353 8 36 42 37 40 53 73 99 91 26 344 100 87 215 266 108 108 111 159 248 154 199 67 17 30 19 4 2
292 293 294 305 306 300 297 299 302 287 272 282 261 186 167 163 149 178 188 219 160 128 96 101 70 301 303 26 16 35 27 60 85 87 55 81 25 70 103 196 258 268 206 161 176 159 130 44 101 53 57 32 27 29
288 297 299 304 301 300 302 301 287 249 269 283 158 146 141 145 120 297 277 83 120 97 82 108 314 37 11 7 42 5 51 28 18 111 26 53 3 67 255 240 257 264 281 295 291 109 119 137 106 71 81 49 44 26
284 297 298 301 307 306 304 292 233 253 135 124 118 116 122 208 174 215 176 81 75 110 135 109 139 187 33 67 86 28 56 47 328 75 279 88 312 227 227 231 254 266 239 194 117 110 105 84 86 69 70 45 43 8
287 294 295 308 312 304 257 191 160 130 131 126 120 140 132 206 158 125 17 39 23 337 44 110 130 144 130 102 66 87 33 136 98 245 96 111 257 253 257 256 250 252 226 170 172 173 117 108 90 48 29 26 17 304
287 291 299 314 308 284 211 168 135 134 143 34 123 76 123 118 67 43 64 108 295 16 197 163 131 135 236 106 142 158 165 117 76 290 126 266 276 262 338 332 289 259 180 154 128 130 139 130 121 282 308 295 294 286
278 290 303 311 317 293 232 147 151 139 142 186 110 121 75 70 58 96 174 348 171 209 175 124 150 138 79 99 90 347 91 41 138 309 95 247 252 279 59 37 36 58 85 111 136 150 167 178 224 244 262 258 251 254
278 291 298 309 319 124 127 133 125 127 116 40 49 49 98 305 71 148 176 211 184 175 161 127 92 111 52 59 68 77 75 202 39 50 231 229 265 315 330 163 103 104 110 108 265 207 196 199 218 211 245 249 250 262
273 288 292 295 299 166 155 156 153 141 46 93 147 153 166 190 213 193 167 154 201 127 124 114 86 107 114 67 118 88 199 84 38 285 237 248 240 280 302 289 216 226 200 201 201 223 220 225 238 252 248 258 261 273
286 290 289 284 270 252 169 167 187 60 110 134 160 191 203 210 196 175 172 102 95 134 118 86 55 83 31 89 49 115 58 210 204 226 226 228 239 250 252 249 241 254 264 250 239 226 232 238 242 263 266 261 254 261
301 310 251 255 254 164 159 156 119 35 6 8 233 336 260 90 1 103 112 129 115 123 86 64 97 74 80 128 92 184 162 212 240 212 219 227 251 258 244 237 241 230 222 235 232 230 232 213 219 236 271 271 260 242
1 240 259 135 113 84 144 102 122 85 103 258 276 234 181 132 158 145 136 125 139 109 118 110 102 178 107 103 177 176 206 215 207 223 224 226 234 246 258 248 241 245 251 248 242 223 219 211 207 229 263 277 266 271
230 231 223 152 153 62 65 41 94 92 74 310 16 332 322 118 128 106 105 142 105 102 108 172 131 139 161 172 226 233 222 243 226 239 257 272 279 293 283 263 267 263 254 248 227 223 223 219 227 246 248 256 274 278
282 236 174 140 129 99 77 32 358 89 21 292 328 330 39 55 36 108 114 90 95 106 97 54 116 167 195 207 199 217 218 194 198 238 237 260 267 273 283 288 281 277 273 245 224 238 249 246 231 233 244 237 235 255
43 99 138 145 57 67 84 66 311 82 54 283 345 6 65 87 86 90 98 81 82 87 77 151 196 209 183 202 178 177 201 203 181 280 282 275 265 274 270 268 268 263 262 257 250 214 225 273 275 250 243 238 235 249
30 24 51 82 95 102 99 119 63 99 37 28 321 58 31 30 66 78 81 48 70 153 188 198 204 233 214 214 199 196 222 191 206 202 242 276 263 234 267 271 269 267 241 264 256 264 248 245 256 252 251 253 241 241
70 98 90 25 70 50 86 347 137 151 79 90 49 8 24 43 58 165 144 67 201 227 185 177 200 207 238 254 241 204 228 249 248 246 256 252 277 268 269 248 249 262 259 258 255 257 259 250 246 250 249 252 243 246
124 35 52 46 67 40 351 357 88 51 98 106 104 76 348 74 210 56 59 224 248 222 205 214 225 213 225 248 245 256 243 251 261 253 258 249 244 244 248 261 224 235 266 273 234 245 256 262 256 246 253 251 246 260
48 59 60 70 70 100 337 10 58 83 65 58 87 111 170 164 78 56 243 248 245 248 224 235 195 253 307 271 247 246 254 212 258 275 250 246 267 267 239 242 247 238 238 257 262 266 265 262 265 265 263 260 255 259
91 41 87 34 322 101 83 58 77 74 127 184 115 79 264 68 81 45 240 266 233 243 253 266 227 216 228 256 268 260 256 196 236 258 269 210 251 274 278 261 255 248 245 233 267 263 263 263 261 262 271 268 264 258
101 221 140 166 199 118 168 132 169 166 125 102 191 178 70 86 93 239 239 253 234 237 236 209 219 243 251 221 241 267 270 227 212 239 270 238 230 230 252 265 270 275 228 229 251 260 270 270 266 266 258 246 242 245
117 245 206 217 154 124 87 66 88 90 102 156 183 86 89 128 237 246 266 240 221 242 234 218 200 217 242 272 268 260 271 268 233 260 279 274 253 233 225 252 269 250 228 225 235 259 282 292 292 283 277 272 254 247
190 158 143 228 88 81 120 99 126 172 181 169 100 155 172 194 228 236 210 231 210 252 269 283 310 317 307 298 311 330 328 343 317 304 292 281 257 279 267 260 263 263 240 239 249 270 267 267 273 275 275 276 277 267
33 56 83 45 58 47 149 155 194 219 162 136 156 197 224 220 222 216 247 241 327 15 334 325 326 352 338 323 309 296 260 289 323 313 308 304 309 307 282 321 318 303 295 292 286 271 276 280 283 287 286 283 282 277
277 83 83 60 90 184 276 354 119 345 309 167 161 2 345 298 262 257 290 342 355 312 322 328 324 328 307 292 295 294 268 275 267 281 297 301 306 317 309 302 298 294 297 302 303 300 294 288 291 295 298 298 291 280
104 67 77 99 142 121 76 351 327 343 29 41 3 127 252 311 309 292 32 79 89 59 42 358 318 283 280 287 301 313 310 276 286 294 290 293 300 303 306 314 327 323 312 315 321 324 323 313 311 343 1 10 5 24
51 64 111 68 81 29 12 43 353 64 342 41 340 18 347 335 285 285 326 96 42 17 335 306 299 305 305 290 282 271 269 287 302 313 324 317 311 334 331 331 333 340 353 357 345 341 337 357 2 40 57 37 32 42
81 91 95 88 66 323 276 111 17 31 358 359 303 262 246 206 242 263 248 152 166 241 292 303 297 297 288 286 283 290 301 304 341 347 347 355 8 10 357 355 354 1 7 6 11 16 33 42 48 58 61 57 49 47